BWA600 TTPP-CYYZ

Flight info

Callsign BWA600
Flight time 5h 35m
Altitude 36000
Route PERRY UG449 ANADA L467 GESSO Y354 DONQU DCT LETON/M079F360 L451 JAINS/N0461F360 DCT FRRAM AR3 GARIC Q129 PYTON DCT WOZEE LINNG3
Aircraft B38M/M-MSDE3FGHIRWYLB1/HB1

Departure

Time 2026-05-08 20:27
Airport Piarco International Airport (TTPP)

Arrival

Time 2026-05-09 02:03
Airport Toronto Pearson International Airport (CYYZ)
Time Latitude Longitude Altitude Speed Heading
2026-05-08 19:24 10.59938 -61.33855 201 ft 0 kts
2026-05-08 20:07 10.59924 -61.33855 201 ft 3 kts
2026-05-08 20:07 10.59905 -61.33857 203 ft 3 kts
2026-05-08 20:08 10.59880 -61.33859 201 ft 3 kts
2026-05-08 20:08 10.59858 -61.33859 201 ft 3 kts 350°
2026-05-08 20:08 10.59840 -61.33850 201 ft 3 kts 295°
2026-05-08 20:08 10.59837 -61.33827 201 ft 3 kts 269°
2026-05-08 20:09 10.59837 -61.33818 201 ft 0 kts 270°
2026-05-08 20:15 10.59837 -61.33835 201 ft 7 kts 270°
2026-05-08 20:15 10.59837 -61.33922 207 ft 17 kts 270°
2026-05-08 20:15 10.59836 -61.34047 201 ft 18 kts 269°
2026-05-08 20:15 10.59811 -61.34170 200 ft 18 kts 214°
2026-05-08 20:16 10.59712 -61.34219 199 ft 16 kts 257°
2026-05-08 20:16 10.59708 -61.34331 199 ft 16 kts 270°
2026-05-08 20:16 10.59704 -61.34447 209 ft 17 kts 268°
2026-05-08 20:16 10.59652 -61.34527 203 ft 9 kts 191°
2026-05-08 20:17 10.59633 -61.34528 207 ft 2 kts 179°
2026-05-08 20:17 10.59581 -61.34527 194 ft 12 kts 179°
2026-05-08 20:17 10.59487 -61.34525 195 ft 14 kts 179°
2026-05-08 20:17 10.59418 -61.34547 199 ft 9 kts 240°
2026-05-08 20:18 10.59410 -61.34609 199 ft 9 kts 271°
2026-05-08 20:18 10.59406 -61.34677 199 ft 10 kts 252°
2026-05-08 20:18 10.59388 -61.34747 212 ft 11 kts 255°
2026-05-08 20:18 10.59367 -61.34822 206 ft 11 kts 253°
2026-05-08 20:19 10.59349 -61.34902 208 ft 12 kts 268°
2026-05-08 20:19 10.59352 -61.34971 210 ft 7 kts 271°
2026-05-08 20:19 10.59352 -61.35020 200 ft 6 kts 269°
2026-05-08 20:19 10.59351 -61.35069 205 ft 8 kts 269°
2026-05-08 20:20 10.59350 -61.35122 211 ft 2 kts 270°
2026-05-08 20:20 10.59352 -61.35141 200 ft 4 kts 281°
2026-05-08 20:20 10.59363 -61.35170 199 ft 5 kts 302°
2026-05-08 20:20 10.59386 -61.35191 199 ft 4 kts 331°
2026-05-08 20:21 10.59416 -61.35193 198 ft 4 kts
2026-05-08 20:21 10.59423 -61.35193 198 ft 0 kts
2026-05-08 20:25 10.59428 -61.35193 198 ft 3 kts
2026-05-08 20:25 10.59469 -61.35189 202 ft 10 kts 19°
2026-05-08 20:26 10.59513 -61.35173 200 ft 6 kts 358°
2026-05-08 20:26 10.59533 -61.35161 194 ft 0 kts 88°
2026-05-08 20:26 10.59533 -61.35155 194 ft 2 kts 89°
2026-05-08 20:26 10.59534 -61.35101 194 ft 20 kts 90°
2026-05-08 20:27 10.59534 -61.34713 195 ft 88 kts 90°
2026-05-08 20:27 10.59539 -61.33887 198 ft 144 kts 89°
2026-05-08 20:27 10.59536 -61.32718 301 ft 176 kts 91°
2026-05-08 20:27 10.59536 -61.31480 982 ft 179 kts 91°
2026-05-08 20:28 10.59543 -61.30173 1581 ft 188 kts 91°
2026-05-08 20:28 10.59553 -61.28824 2108 ft 196 kts 90°
2026-05-08 20:28 10.59580 -61.27367 2296 ft 220 kts 89°
2026-05-08 20:28 10.59601 -61.25749 2666 ft 233 kts 89°
2026-05-08 20:29 10.59613 -61.24074 3142 ft 244 kts 89°
2026-05-08 20:29 10.59616 -61.22296 3542 ft 257 kts 89°
2026-05-08 20:29 10.59980 -61.20527 4166 ft 258 kts 65°
2026-05-08 20:29 10.60933 -61.18962 4742 ft 264 kts 51°
2026-05-08 20:30 10.62231 -61.17625 5348 ft 269 kts 40°
2026-05-08 20:30 10.63763 -61.16522 5961 ft 272 kts 34°
2026-05-08 20:30 10.65359 -61.15459 6556 ft 276 kts 34°
2026-05-08 20:30 10.66980 -61.14393 7131 ft 279 kts 30°
2026-05-08 20:31 10.68840 -61.13913 7719 ft 281 kts 358°
2026-05-08 20:31 10.70717 -61.14500 8191 ft 288 kts 330°
2026-05-08 20:31 10.72408 -61.15636 8699 ft 293 kts 326°
2026-05-08 20:31 10.74097 -61.16809 9232 ft 295 kts 327°
2026-05-08 20:32 10.75804 -61.17987 9769 ft 298 kts 327°
2026-05-08 20:32 10.77531 -61.19175 10198 ft 305 kts 327°
2026-05-08 20:32 10.79339 -61.20415 10300 ft 322 kts 327°
2026-05-08 20:32 10.81236 -61.21717 10475 ft 336 kts 327°
2026-05-08 20:33 10.83202 -61.23066 10729 ft 345 kts 327°
2026-05-08 20:33 10.85206 -61.24440 11141 ft 349 kts 327°
2026-05-08 20:33 10.87227 -61.25828 11615 ft 351 kts 327°
2026-05-08 20:33 10.89254 -61.27220 12127 ft 353 kts 327°
2026-05-08 20:34 10.91301 -61.28625 12655 ft 356 kts 327°
2026-05-08 20:34 10.93358 -61.30037 13183 ft 358 kts 327°
2026-05-08 20:34 10.97515 -61.32891 14265 ft 363 kts 326°
2026-05-08 20:35 10.99596 -61.34320 14748 ft 366 kts 326°
2026-05-08 20:35 11.01715 -61.35777 15276 ft 370 kts 326°
2026-05-08 20:35 11.03864 -61.37254 15640 ft 376 kts 326°
2026-05-08 20:35 11.06042 -61.38751 16123 ft 379 kts 326°
2026-05-08 20:36 11.08232 -61.40255 16555 ft 382 kts 325°
2026-05-08 20:36 11.10445 -61.41777 17039 ft 383 kts 325°
2026-05-08 20:36 11.12662 -61.43301 17469 ft 386 kts 325°
2026-05-08 20:36 11.14896 -61.44838 17891 ft 388 kts 325°
2026-05-08 20:37 11.17141 -61.46382 18309 ft 390 kts 325°
2026-05-08 20:37 11.19397 -61.47935 18694 ft 393 kts 324°
2026-05-08 20:37 11.21667 -61.49497 19109 ft 395 kts 324°
2026-05-08 20:37 11.23949 -61.51068 19477 ft 398 kts 324°
2026-05-08 20:38 11.26249 -61.52652 19840 ft 400 kts 324°
2026-05-08 20:38 11.28560 -61.54243 20208 ft 401 kts 324°
2026-05-08 20:38 11.30877 -61.55838 20550 ft 403 kts 324°
2026-05-08 20:38 11.33209 -61.57445 20890 ft 405 kts 324°
2026-05-08 20:39 11.35552 -61.59059 21227 ft 407 kts 324°
2026-05-08 20:39 11.37902 -61.60678 21557 ft 409 kts 323°
2026-05-08 20:39 11.40268 -61.62310 21867 ft 411 kts 323°
2026-05-08 20:39 11.42636 -61.63942 22173 ft 412 kts 323°
2026-05-08 20:40 11.44988 -61.65564 22476 ft 415 kts 323°
2026-05-08 20:40 11.47383 -61.67215 22801 ft 416 kts 323°
2026-05-08 20:40 11.49789 -61.68875 23120 ft 418 kts 323°
2026-05-08 20:40 11.52201 -61.70539 23427 ft 420 kts 323°
2026-05-08 20:41 11.54628 -61.72214 23725 ft 422 kts 323°
2026-05-08 20:41 11.57057 -61.73891 24031 ft 423 kts 323°
2026-05-08 20:41 11.59500 -61.75578 24323 ft 425 kts 323°
2026-05-08 20:41 11.61957 -61.77274 24610 ft 427 kts 322°
2026-05-08 20:42 11.64430 -61.78983 24906 ft 429 kts 322°
2026-05-08 20:42 11.66909 -61.80695 25180 ft 431 kts 322°
2026-05-08 20:42 11.69407 -61.82421 25446 ft 434 kts 322°
2026-05-08 20:42 11.71913 -61.84153 25712 ft 436 kts 322°
2026-05-08 20:43 11.74423 -61.85889 25986 ft 438 kts 322°
2026-05-08 20:43 11.76921 -61.87616 26248 ft 440 kts 322°
2026-05-08 20:43 11.79492 -61.89394 26503 ft 442 kts 322°
2026-05-08 20:43 11.82010 -61.91136 26755 ft 444 kts 322°
2026-05-08 20:44 11.84610 -61.92935 27018 ft 446 kts 321°
2026-05-08 20:44 11.87150 -61.94693 27264 ft 448 kts 321°
2026-05-08 20:44 11.89735 -61.96484 27508 ft 450 kts 321°
2026-05-08 20:44 11.92329 -61.98279 27746 ft 452 kts 321°
2026-05-08 20:45 11.94937 -62.00085 27964 ft 454 kts 321°
2026-05-08 20:45 11.96673 -62.01288 28121 ft 455 kts 321°
2026-05-08 20:45 12.00191 -62.03726 28435 ft 457 kts 321°
2026-05-08 20:45 12.02836 -62.05559 28649 ft 459 kts 321°
2026-05-08 20:46 12.05482 -62.07393 28861 ft 461 kts 321°
2026-05-08 20:46 12.08142 -62.09238 29080 ft 463 kts 321°
2026-05-08 20:46 12.10814 -62.11091 29284 ft 465 kts 320°
2026-05-08 20:46 12.13492 -62.12948 29492 ft 466 kts 321°
2026-05-08 20:47 12.16185 -62.14818 29684 ft 468 kts 320°
2026-05-08 20:47 12.18881 -62.16689 29892 ft 469 kts 320°
2026-05-08 20:47 12.21582 -62.18565 30112 ft 471 kts 320°
2026-05-08 20:47 12.24293 -62.20447 30333 ft 471 kts 320°
2026-05-08 20:48 12.27004 -62.22330 30637 ft 470 kts 320°
2026-05-08 20:48 12.29677 -62.24187 30936 ft 469 kts 321°
2026-05-08 20:48 12.32372 -62.26060 31285 ft 468 kts 321°
2026-05-08 20:48 12.35060 -62.27928 31588 ft 466 kts 321°
2026-05-08 20:49 12.37740 -62.29792 31876 ft 465 kts 321°
2026-05-08 20:49 12.40411 -62.31650 32171 ft 464 kts 321°
2026-05-08 20:49 12.43083 -62.33509 32475 ft 463 kts 321°
2026-05-08 20:49 12.45742 -62.35360 32776 ft 462 kts 321°
2026-05-08 20:50 12.48401 -62.37210 33052 ft 461 kts 321°
2026-05-08 20:50 12.51043 -62.39049 33322 ft 460 kts 321°
2026-05-08 20:50 12.53690 -62.40893 33592 ft 458 kts 321°
2026-05-08 20:50 12.56318 -62.42724 33851 ft 458 kts 321°
2026-05-08 20:51 12.58954 -62.44560 34111 ft 457 kts 322°
2026-05-08 20:51 12.61580 -62.46391 34358 ft 456 kts 322°
2026-05-08 20:51 12.64200 -62.48217 34598 ft 455 kts 322°
2026-05-08 20:51 12.66784 -62.50018 34801 ft 454 kts 322°
2026-05-08 20:52 12.69392 -62.51837 35025 ft 454 kts 322°
2026-05-08 20:52 12.72001 -62.53657 35235 ft 453 kts 322°
2026-05-08 20:52 12.74610 -62.55479 35442 ft 453 kts 322°
2026-05-08 20:52 12.77208 -62.57292 35644 ft 452 kts 322°
2026-05-08 20:53 12.79810 -62.59108 35836 ft 452 kts 322°
2026-05-08 20:53 12.82403 -62.60919 35944 ft 450 kts 322°
2026-05-08 20:53 12.84974 -62.62714 35934 ft 444 kts 322°
2026-05-08 20:54 12.90040 -62.66255 35936 ft 439 kts 322°
2026-05-08 20:54 12.95089 -62.69785 35935 ft 439 kts 322°
2026-05-08 20:55 13.00108 -62.73295 35934 ft 439 kts 323°
2026-05-08 20:55 13.05147 -62.76822 35934 ft 439 kts 323°
2026-05-08 20:56 13.10189 -62.80352 35935 ft 439 kts 323°
2026-05-08 20:56 13.15235 -62.83887 35933 ft 438 kts 323°
2026-05-08 20:57 13.20266 -62.87413 35937 ft 438 kts 323°
2026-05-08 20:57 13.25302 -62.90944 35946 ft 438 kts 323°
2026-05-08 20:58 13.30345 -62.94482 35944 ft 438 kts 323°
2026-05-08 20:58 13.35341 -62.97990 35944 ft 438 kts 323°
2026-05-08 20:59 13.40374 -63.01524 35944 ft 438 kts 324°
2026-05-08 20:59 13.45397 -63.05054 35943 ft 437 kts 324°
2026-05-08 21:00 13.50423 -63.08587 35945 ft 437 kts 324°
2026-05-08 21:00 13.55449 -63.12122 35945 ft 438 kts 324°
2026-05-08 21:01 13.60469 -63.15656 35951 ft 437 kts 324°
2026-05-08 21:01 13.65493 -63.19193 35953 ft 437 kts 324°
2026-05-08 21:02 13.70515 -63.22731 35953 ft 437 kts 324°
2026-05-08 21:02 13.75528 -63.26265 35953 ft 436 kts 324°
2026-05-08 21:03 13.80529 -63.29792 35951 ft 436 kts 325°
2026-05-08 21:03 13.85503 -63.33302 35952 ft 435 kts 325°
2026-05-08 21:04 13.90494 -63.36826 35953 ft 435 kts 325°
2026-05-08 21:04 13.95495 -63.40358 35954 ft 435 kts 325°
2026-05-08 21:05 14.00482 -63.43883 35953 ft 435 kts 325°
2026-05-08 21:05 14.05471 -63.47410 35946 ft 434 kts 326°
2026-05-08 21:06 14.10421 -63.50913 35952 ft 435 kts 326°
2026-05-08 21:06 14.15405 -63.54441 35950 ft 434 kts 326°
2026-05-08 21:07 14.20379 -63.57964 35954 ft 434 kts 326°
2026-05-08 21:07 14.25358 -63.61493 35953 ft 434 kts 326°
2026-05-08 21:08 14.30334 -63.65021 35953 ft 434 kts 326°
2026-05-08 21:08 14.35313 -63.68553 35953 ft 434 kts 326°
2026-05-08 21:09 14.40292 -63.72087 35953 ft 435 kts 326°
2026-05-08 21:09 14.45270 -63.75623 35953 ft 434 kts 326°
2026-05-08 21:10 14.50233 -63.79150 35954 ft 433 kts 326°
2026-05-08 21:10 14.55171 -63.82661 35953 ft 434 kts 326°
2026-05-08 21:11 14.60138 -63.86195 35952 ft 434 kts 326°
2026-05-08 21:11 14.65114 -63.89737 35952 ft 433 kts 327°
2026-05-08 21:12 14.70078 -63.93272 35953 ft 432 kts 327°
2026-05-08 21:12 14.75008 -63.96785 35961 ft 433 kts 327°
2026-05-08 21:13 14.79971 -64.00323 35962 ft 433 kts 327°
2026-05-08 21:13 14.84921 -64.03855 35963 ft 431 kts 328°
2026-05-08 21:14 14.89834 -64.07362 35985 ft 427 kts 329°
2026-05-08 21:14 14.93899 -64.10265 35991 ft 427 kts 329°
2026-05-08 21:15 14.98788 -64.13758 35989 ft 427 kts 329°
2026-05-08 21:15 15.03822 -64.16988 35993 ft 426 kts 332°
2026-05-08 21:16 15.08860 -64.20208 35991 ft 425 kts 332°
2026-05-08 21:16 15.13896 -64.23437 35991 ft 425 kts 332°
2026-05-08 21:17 15.18863 -64.26784 35991 ft 425 kts 331°
2026-05-08 21:17 15.23793 -64.30108 35985 ft 426 kts 331°
2026-05-08 21:18 15.28752 -64.33452 35980 ft 425 kts 331°
2026-05-08 21:18 15.33712 -64.36799 35981 ft 425 kts 331°
2026-05-08 21:19 15.38673 -64.40145 35980 ft 425 kts 331°
2026-05-08 21:19 15.43632 -64.43499 35981 ft 425 kts 330°
2026-05-08 21:20 15.48582 -64.46845 35981 ft 424 kts 330°
2026-05-08 21:20 15.53526 -64.50189 35981 ft 424 kts 330°
2026-05-08 21:21 15.58447 -64.53518 35978 ft 424 kts 330°
2026-05-08 21:21 15.63398 -64.56870 35980 ft 424 kts 330°
2026-05-08 21:22 15.68346 -64.60222 35981 ft 425 kts 330°
2026-05-08 21:22 15.73296 -64.63577 35980 ft 424 kts 330°
2026-05-08 21:23 15.78240 -64.66931 35981 ft 424 kts 330°
2026-05-08 21:23 15.83157 -64.70268 35981 ft 425 kts 330°
2026-05-08 21:24 15.88100 -64.73624 35980 ft 424 kts 330°
2026-05-08 21:24 15.93048 -64.76986 35992 ft 425 kts 330°
2026-05-08 21:25 15.97997 -64.80351 35993 ft 425 kts 330°
2026-05-08 21:25 16.02947 -64.83718 35988 ft 425 kts 330°
2026-05-08 21:26 16.07906 -64.87092 35990 ft 426 kts 330°
2026-05-08 21:26 16.12861 -64.90468 35988 ft 426 kts 330°
2026-05-08 21:27 16.17818 -64.93846 35989 ft 426 kts 330°
2026-05-08 21:27 16.22747 -64.97207 36001 ft 426 kts 330°
2026-05-08 21:28 16.27705 -65.00589 35998 ft 427 kts 330°
2026-05-08 21:28 16.32668 -65.03978 35998 ft 426 kts 330°
2026-05-08 21:29 16.37632 -65.07369 36007 ft 426 kts 330°
2026-05-08 21:29 16.42593 -65.10760 36009 ft 426 kts 330°
2026-05-08 21:30 16.47553 -65.14153 36007 ft 426 kts 330°
2026-05-08 21:30 16.52516 -65.17548 36007 ft 427 kts 330°
2026-05-08 21:31 16.57477 -65.20943 36010 ft 427 kts 330°
2026-05-08 21:31 16.62444 -65.24346 36008 ft 427 kts 330°
2026-05-08 21:32 16.67418 -65.27757 36008 ft 427 kts 330°
2026-05-08 21:32 16.72386 -65.31170 36007 ft 427 kts 330°
2026-05-08 21:33 16.77322 -65.34560 36007 ft 427 kts 330°
2026-05-08 21:33 16.82297 -65.37977 36010 ft 427 kts 330°
2026-05-08 21:34 16.87262 -65.41391 36008 ft 427 kts 330°
2026-05-08 21:34 16.92225 -65.44805 36008 ft 427 kts 330°
2026-05-08 21:35 16.97188 -65.48221 36008 ft 428 kts 330°
2026-05-08 21:35 17.02153 -65.51641 36011 ft 427 kts 330°
2026-05-08 21:36 17.07119 -65.55063 36008 ft 427 kts 330°
2026-05-08 21:36 17.12078 -65.58484 36010 ft 427 kts 330°
2026-05-08 21:37 17.17011 -65.61888 36007 ft 427 kts 330°
2026-05-08 21:37 17.21970 -65.65313 36008 ft 427 kts 330°
2026-05-08 21:38 17.26925 -65.68737 35999 ft 427 kts 329°
2026-05-08 21:38 17.27765 -65.69317 35999 ft 427 kts 329°
2026-05-08 21:40 17.44554 -65.80937 35997 ft 427 kts 329°
2026-05-08 21:40 17.47387 -65.82900 35999 ft 428 kts 329°
2026-05-08 21:41 17.54833 -65.88063 35998 ft 427 kts 329°
2026-05-08 21:41 17.59798 -65.91509 35999 ft 428 kts 329°
2026-05-08 21:42 17.64757 -65.94954 35997 ft 428 kts 329°
2026-05-08 21:42 17.69712 -65.98397 35998 ft 428 kts 329°
2026-05-08 21:43 17.74669 -66.01845 36010 ft 427 kts 329°
2026-05-08 21:43 17.79630 -66.05297 36009 ft 427 kts 329°
2026-05-08 21:44 17.84417 -66.08631 35998 ft 427 kts 329°
2026-05-08 21:44 17.89339 -66.12061 35998 ft 427 kts 329°
2026-05-08 21:45 17.94293 -66.15515 35999 ft 427 kts 329°
2026-05-08 21:45 17.99243 -66.18969 35992 ft 427 kts 329°
2026-05-08 21:46 18.04193 -66.22426 35995 ft 427 kts 329°
2026-05-08 21:46 18.09135 -66.25879 36000 ft 427 kts 329°
2026-05-08 21:47 18.10318 -66.26706 36002 ft 427 kts 329°
2026-05-08 21:47 18.15218 -66.30134 35996 ft 427 kts 329°
2026-05-08 21:48 18.20163 -66.33593 35998 ft 427 kts 328°
2026-05-08 21:48 18.25110 -66.37058 35989 ft 427 kts 329°
2026-05-08 21:49 18.30060 -66.40527 36002 ft 427 kts 329°
2026-05-08 21:49 18.34968 -66.43969 36001 ft 427 kts 328°
2026-05-08 21:50 18.39917 -66.47442 36004 ft 427 kts 328°
2026-05-08 21:50 18.44861 -66.50914 35999 ft 427 kts 328°
2026-05-08 21:51 18.49809 -66.54392 35999 ft 427 kts 328°
2026-05-08 21:51 18.54756 -66.57870 35999 ft 427 kts 328°
2026-05-08 21:52 18.59691 -66.61343 36007 ft 427 kts 328°
2026-05-08 21:52 18.64628 -66.64820 36011 ft 426 kts 328°
2026-05-08 21:53 18.69530 -66.68275 36008 ft 426 kts 328°
2026-05-08 21:53 18.74454 -66.71748 36010 ft 426 kts 328°
2026-05-08 21:54 18.79391 -66.75232 36008 ft 426 kts 328°
2026-05-08 21:54 18.84320 -66.78714 36007 ft 425 kts 328°
2026-05-08 21:55 18.89237 -66.82188 36007 ft 426 kts 328°
2026-05-08 21:56 18.96613 -66.87407 36007 ft 425 kts 328°
2026-05-08 21:56 19.01528 -66.90886 36010 ft 425 kts 328°
2026-05-08 21:57 19.06444 -66.94370 36010 ft 425 kts 328°
2026-05-08 21:57 19.11358 -66.97854 36009 ft 424 kts 328°
2026-05-08 21:58 19.16268 -67.01339 36011 ft 426 kts 328°
2026-05-08 21:58 19.21159 -67.04811 36016 ft 425 kts 328°
2026-05-08 21:59 19.26072 -67.08303 36018 ft 425 kts 328°
2026-05-08 21:59 19.30988 -67.11799 36017 ft 425 kts 328°
2026-05-08 22:00 19.35900 -67.15295 36019 ft 425 kts 327°
2026-05-08 22:00 19.40812 -67.18793 36018 ft 425 kts 327°
2026-05-08 22:01 19.45720 -67.22292 36017 ft 425 kts 327°
2026-05-08 22:01 19.50622 -67.25787 36019 ft 425 kts 327°
2026-05-08 22:02 19.55528 -67.29289 36017 ft 425 kts 327°
2026-05-08 22:02 19.60432 -67.32792 36015 ft 425 kts 327°
2026-05-08 22:03 19.65331 -67.36295 36018 ft 425 kts 327°
2026-05-08 22:03 19.70237 -67.39804 36017 ft 425 kts 327°
2026-05-08 22:04 19.75107 -67.43291 36015 ft 425 kts 327°
2026-05-08 22:04 19.80009 -67.46803 36020 ft 425 kts 327°
2026-05-08 22:05 19.84909 -67.50316 36027 ft 425 kts 327°
2026-05-08 22:05 19.89805 -67.53829 36029 ft 424 kts 327°
2026-05-08 22:06 19.94693 -67.57339 36026 ft 423 kts 327°
2026-05-08 22:06 19.99574 -67.60847 36026 ft 424 kts 327°
2026-05-08 22:07 20.04468 -67.64367 36029 ft 424 kts 327°
2026-05-08 22:07 20.09354 -67.67883 36026 ft 423 kts 327°
2026-05-08 22:08 20.14232 -67.71397 36027 ft 423 kts 327°
2026-05-08 22:08 20.19083 -67.74894 36027 ft 424 kts 327°
2026-05-08 22:09 20.23962 -67.78413 36027 ft 423 kts 327°
2026-05-08 22:09 20.28836 -67.81933 36027 ft 424 kts 327°
2026-05-08 22:10 20.33719 -67.85460 36028 ft 423 kts 327°
2026-05-08 22:10 20.38595 -67.88986 36028 ft 423 kts 327°
2026-05-08 22:11 20.43467 -67.92512 36027 ft 423 kts 327°
2026-05-08 22:11 20.48340 -67.96041 36026 ft 423 kts 327°
2026-05-08 22:12 20.53216 -67.99574 36010 ft 423 kts 327°
2026-05-08 22:12 20.58089 -68.03110 35999 ft 424 kts 327°
2026-05-08 22:13 20.62946 -68.06635 35997 ft 425 kts 327°
2026-05-08 22:13 20.67832 -68.10184 35999 ft 424 kts 327°
2026-05-08 22:14 20.72573 -68.13937 36003 ft 424 kts 321°
2026-05-08 22:14 20.77135 -68.17955 36000 ft 425 kts 322°
2026-05-08 22:15 20.81720 -68.21938 35996 ft 425 kts 322°
2026-05-08 22:15 20.86309 -68.25919 36000 ft 425 kts 322°
2026-05-08 22:16 20.90872 -68.29880 35999 ft 424 kts 322°
2026-05-08 22:16 20.95457 -68.33862 36002 ft 425 kts 322°
2026-05-08 22:17 21.00045 -68.37849 36000 ft 425 kts 322°
2026-05-08 22:17 21.03885 -68.41191 36002 ft 425 kts 322°
2026-05-08 22:18 21.08440 -68.45155 36000 ft 424 kts 322°
2026-05-08 22:18 21.13021 -68.49148 36004 ft 425 kts 322°
2026-05-08 22:19 21.17604 -68.53144 36000 ft 424 kts 322°
2026-05-08 22:19 21.22186 -68.57143 35997 ft 425 kts 322°
2026-05-08 22:20 21.26764 -68.61143 36001 ft 424 kts 322°
2026-05-08 22:20 21.31339 -68.65142 35997 ft 424 kts 322°
2026-05-08 22:21 21.35912 -68.69142 35999 ft 424 kts 322°
2026-05-08 22:21 21.40457 -68.73122 35996 ft 424 kts 322°
2026-05-08 22:22 21.45032 -68.77132 36002 ft 424 kts 322°
2026-05-08 22:22 21.49604 -68.81142 35990 ft 424 kts 322°
2026-05-08 22:23 21.54169 -68.85149 36013 ft 424 kts 322°
2026-05-08 22:23 21.58745 -68.89170 36019 ft 425 kts 322°
2026-05-08 22:24 21.63320 -68.93193 36018 ft 425 kts 322°
2026-05-08 22:24 21.67896 -68.97221 36016 ft 425 kts 322°
2026-05-08 22:25 21.72475 -69.01254 36016 ft 425 kts 322°
2026-05-08 22:25 21.77045 -69.05283 36017 ft 425 kts 322°
2026-05-08 22:26 21.81592 -69.09294 36018 ft 425 kts 322°
2026-05-08 22:26 21.86169 -69.13336 36021 ft 426 kts 321°
2026-05-08 22:27 21.90750 -69.17385 36019 ft 426 kts 321°
2026-05-08 22:27 21.95333 -69.21439 36018 ft 426 kts 321°
2026-05-08 22:28 21.99883 -69.25468 36017 ft 426 kts 321°
2026-05-08 22:28 22.04469 -69.29531 36017 ft 425 kts 321°
2026-05-08 22:29 22.09036 -69.33581 36018 ft 425 kts 321°
2026-05-08 22:29 22.13595 -69.37628 36018 ft 425 kts 321°
2026-05-08 22:30 22.18166 -69.41689 36018 ft 425 kts 321°
2026-05-08 22:30 22.22732 -69.45750 36021 ft 425 kts 321°
2026-05-08 22:31 22.27294 -69.49809 36010 ft 425 kts 321°
2026-05-08 22:31 22.31855 -69.53872 36007 ft 425 kts 321°
2026-05-08 22:32 22.36415 -69.57938 36005 ft 425 kts 321°
2026-05-08 22:32 22.40958 -69.61991 36008 ft 426 kts 321°
2026-05-08 22:33 22.45529 -69.66074 36011 ft 426 kts 321°
2026-05-08 22:33 22.50092 -69.70154 36007 ft 425 kts 321°
2026-05-08 22:34 22.54647 -69.74228 36008 ft 425 kts 321°
2026-05-08 22:34 22.59199 -69.78304 36014 ft 425 kts 321°
2026-05-08 22:35 22.63755 -69.82388 36017 ft 425 kts 321°
2026-05-08 22:35 22.68312 -69.86475 36017 ft 425 kts 321°
2026-05-08 22:36 22.72864 -69.90562 36018 ft 425 kts 321°
2026-05-08 22:36 22.77411 -69.94648 36019 ft 425 kts 321°
2026-05-08 22:37 22.81961 -69.98741 36017 ft 425 kts 321°
2026-05-08 22:37 22.86478 -70.02808 36013 ft 424 kts 320°
2026-05-08 22:38 22.91027 -70.06907 36018 ft 426 kts 320°
2026-05-08 22:38 22.95581 -70.11014 36018 ft 425 kts 320°
2026-05-08 22:39 23.00136 -70.15126 36017 ft 425 kts 320°
2026-05-08 22:39 23.04678 -70.19230 36015 ft 424 kts 320°
2026-05-08 22:40 23.09217 -70.23334 36018 ft 425 kts 320°
2026-05-08 22:40 23.13753 -70.27440 36018 ft 424 kts 320°
2026-05-08 22:41 23.18293 -70.31554 36017 ft 427 kts 320°
2026-05-08 22:41 23.22885 -70.35718 36016 ft 433 kts 320°
2026-05-08 22:42 23.26831 -70.39299 36018 ft 438 kts 320°
2026-05-08 22:42 23.31532 -70.43569 36018 ft 443 kts 320°
2026-05-08 22:43 23.36278 -70.47885 36018 ft 444 kts 320°
2026-05-08 22:43 23.40991 -70.52175 36018 ft 444 kts 320°
2026-05-08 22:44 23.45735 -70.56497 36018 ft 444 kts 320°
2026-05-08 22:44 23.50475 -70.60819 36014 ft 445 kts 320°
2026-05-08 22:45 23.55220 -70.65150 36009 ft 444 kts 320°
2026-05-08 22:45 23.59956 -70.69477 36007 ft 444 kts 319°
2026-05-08 22:46 23.64693 -70.73810 36010 ft 444 kts 319°
2026-05-08 22:46 23.69434 -70.78151 36009 ft 445 kts 319°
2026-05-08 22:47 23.74169 -70.82489 36008 ft 444 kts 319°
2026-05-08 22:47 23.78877 -70.86807 36007 ft 445 kts 319°
2026-05-08 22:48 23.83612 -70.91155 36009 ft 445 kts 319°
2026-05-08 22:48 23.88346 -70.95506 36008 ft 444 kts 319°
2026-05-08 22:49 23.93075 -70.99857 36009 ft 444 kts 319°
2026-05-08 22:49 24.00172 -71.06394 36010 ft 445 kts 319°
2026-05-08 22:50 24.04896 -71.10752 36006 ft 442 kts 319°
2026-05-08 22:50 24.09600 -71.15094 36010 ft 442 kts 319°
2026-05-08 22:51 24.14294 -71.19432 36016 ft 442 kts 319°
2026-05-08 22:51 24.18998 -71.23783 36017 ft 442 kts 319°
2026-05-08 22:52 24.23696 -71.28134 36018 ft 442 kts 319°
2026-05-08 22:52 24.28397 -71.32491 36011 ft 442 kts 319°
2026-05-08 22:53 24.33067 -71.36824 36011 ft 442 kts 319°
2026-05-08 22:53 24.37770 -71.41192 36006 ft 442 kts 319°
2026-05-08 22:54 24.42469 -71.45560 36011 ft 442 kts 319°
2026-05-08 22:54 24.47168 -71.49933 36010 ft 442 kts 319°
2026-05-08 22:55 24.51865 -71.54309 36008 ft 443 kts 319°
2026-05-08 22:55 24.56519 -71.58649 36007 ft 442 kts 319°
2026-05-08 22:56 24.61210 -71.63027 36006 ft 442 kts 319°
2026-05-08 22:56 24.65901 -71.67410 36008 ft 442 kts 319°
2026-05-08 22:57 24.70589 -71.71794 36009 ft 442 kts 318°
2026-05-08 22:57 24.75267 -71.76173 36008 ft 442 kts 318°
2026-05-08 22:58 24.79948 -71.80559 36012 ft 441 kts 318°
2026-05-08 22:58 24.84618 -71.84940 36009 ft 441 kts 318°
2026-05-08 22:59 24.89288 -71.89324 36008 ft 440 kts 318°
2026-05-08 22:59 24.93917 -71.93676 36010 ft 440 kts 318°
2026-05-08 23:00 24.98577 -71.98060 36009 ft 440 kts 318°
2026-05-08 23:00 25.03698 -72.01736 36009 ft 441 kts 327°
2026-05-08 23:01 25.09032 -72.05153 36010 ft 443 kts 328°
2026-05-08 23:01 25.14329 -72.08527 36006 ft 442 kts 328°
2026-05-08 23:02 25.19656 -72.11923 36008 ft 442 kts 328°
2026-05-08 23:02 25.24982 -72.15321 36008 ft 441 kts 328°
2026-05-08 23:03 25.30306 -72.18721 36008 ft 442 kts 327°
2026-05-08 23:03 25.35631 -72.22126 36008 ft 442 kts 328°
2026-05-08 23:04 25.40946 -72.25528 36008 ft 441 kts 327°
2026-05-08 23:04 25.46252 -72.28927 36008 ft 441 kts 327°
2026-05-08 23:05 25.51555 -72.32328 36004 ft 440 kts 327°
2026-05-08 23:05 25.56822 -72.35710 36009 ft 440 kts 327°
2026-05-08 23:06 25.62117 -72.39113 36009 ft 440 kts 327°
2026-05-08 23:06 25.67411 -72.42518 36013 ft 440 kts 327°
2026-05-08 23:07 25.71807 -72.45349 36009 ft 439 kts 327°
2026-05-08 23:07 25.77088 -72.48753 36007 ft 439 kts 327°
2026-05-08 23:08 25.82370 -72.52161 36007 ft 439 kts 327°
2026-05-08 23:08 25.87649 -72.55570 36007 ft 439 kts 327°
2026-05-08 23:09 25.92942 -72.58993 36007 ft 440 kts 327°
2026-05-08 23:09 25.98233 -72.62417 36010 ft 440 kts 327°
2026-05-08 23:10 26.03527 -72.65848 36010 ft 438 kts 327°
2026-05-08 23:10 26.08744 -72.69232 36010 ft 437 kts 327°
2026-05-08 23:11 26.14007 -72.72648 36010 ft 437 kts 327°
2026-05-08 23:11 26.19263 -72.76065 36008 ft 437 kts 327°
2026-05-08 23:12 26.24533 -72.79494 36009 ft 438 kts 327°
2026-05-08 23:12 26.29787 -72.82916 36006 ft 438 kts 327°
2026-05-08 23:13 26.35049 -72.86347 36004 ft 437 kts 327°
2026-05-08 23:13 26.40302 -72.89776 36010 ft 437 kts 326°
2026-05-08 23:14 26.45557 -72.93210 36009 ft 437 kts 326°
2026-05-08 23:14 26.50810 -72.96645 36007 ft 437 kts 326°
2026-05-08 23:15 26.56058 -73.00082 36009 ft 437 kts 326°
2026-05-08 23:15 26.61309 -73.03524 36007 ft 437 kts 326°
2026-05-08 23:16 26.66516 -73.06941 36007 ft 437 kts 326°
2026-05-08 23:16 26.71756 -73.10383 36014 ft 436 kts 326°
2026-05-08 23:17 26.76986 -73.13824 36017 ft 436 kts 326°
2026-05-08 23:17 26.82227 -73.17274 36018 ft 436 kts 326°
2026-05-08 23:18 26.87457 -73.20721 36016 ft 436 kts 326°
2026-05-08 23:18 26.92676 -73.24164 36009 ft 436 kts 326°
2026-05-08 23:19 26.97901 -73.27615 36008 ft 435 kts 326°
2026-05-08 23:19 27.03085 -73.31043 36007 ft 435 kts 326°
2026-05-08 23:20 27.08299 -73.34494 36009 ft 435 kts 326°
2026-05-08 23:20 27.13539 -73.37967 36007 ft 434 kts 326°
2026-05-08 23:21 27.18707 -73.41396 36008 ft 434 kts 326°
2026-05-08 23:21 27.23910 -73.44851 36009 ft 434 kts 325°
2026-05-08 23:22 27.29100 -73.48302 36010 ft 433 kts 325°
2026-05-08 23:22 27.34281 -73.51750 36009 ft 432 kts 325°
2026-05-08 23:23 27.39453 -73.55196 36010 ft 432 kts 325°
2026-05-08 23:23 27.44622 -73.58644 36009 ft 432 kts 325°
2026-05-08 23:24 27.49786 -73.62093 36009 ft 432 kts 325°
2026-05-08 23:24 27.54915 -73.65521 36008 ft 431 kts 325°
2026-05-08 23:25 27.60075 -73.68974 36007 ft 430 kts 325°
2026-05-08 23:25 27.65222 -73.72423 36009 ft 429 kts 325°
2026-05-08 23:26 27.70362 -73.75871 36007 ft 429 kts 324°
2026-05-08 23:26 27.75504 -73.79323 36009 ft 430 kts 324°
2026-05-08 23:27 27.80610 -73.82755 36007 ft 429 kts 324°
2026-05-08 23:27 27.85740 -73.86208 36012 ft 429 kts 324°
2026-05-08 23:28 27.90862 -73.89659 36009 ft 428 kts 324°
2026-05-08 23:28 27.95985 -73.93113 36009 ft 428 kts 324°
2026-05-08 23:29 28.01104 -73.96569 36002 ft 428 kts 324°
2026-05-08 23:29 28.06189 -74.00005 35997 ft 428 kts 324°
2026-05-08 23:30 28.11309 -74.03469 35997 ft 428 kts 324°
2026-05-08 23:30 28.16422 -74.06932 36001 ft 428 kts 324°
2026-05-08 23:31 28.21546 -74.10407 36000 ft 428 kts 324°
2026-05-08 23:31 28.26444 -74.14174 36003 ft 424 kts 318°
2026-05-08 23:32 28.31094 -74.18287 36000 ft 424 kts 318°
2026-05-08 23:32 28.35735 -74.22414 35999 ft 423 kts 317°
2026-05-08 23:33 28.40341 -74.26518 36005 ft 423 kts 317°
2026-05-08 23:33 28.44974 -74.30650 35998 ft 423 kts 317°
2026-05-08 23:34 28.49599 -74.34780 36005 ft 423 kts 317°
2026-05-08 23:34 28.54225 -74.38916 36001 ft 422 kts 317°
2026-05-08 23:35 28.58844 -74.43049 35997 ft 423 kts 317°
2026-05-08 23:35 28.63460 -74.47187 35995 ft 422 kts 317°
2026-05-08 23:36 28.68066 -74.51317 36001 ft 421 kts 317°
2026-05-08 23:36 28.72673 -74.55455 35994 ft 421 kts 317°
2026-05-08 23:37 28.77270 -74.59588 35981 ft 420 kts 316°
2026-05-08 23:37 28.81856 -74.63716 36009 ft 420 kts 316°
2026-05-08 23:38 28.86442 -74.67849 36015 ft 419 kts 316°
2026-05-08 23:38 28.91014 -74.71974 36008 ft 419 kts 316°
2026-05-08 23:39 28.95558 -74.76079 36010 ft 419 kts 316°
2026-05-08 23:39 29.00128 -74.80211 36009 ft 418 kts 316°
2026-05-08 23:40 29.04688 -74.84341 36010 ft 418 kts 316°
2026-05-08 23:40 29.09247 -74.88473 36013 ft 418 kts 316°
2026-05-08 23:41 29.13796 -74.92601 36007 ft 417 kts 316°
2026-05-08 23:41 29.18345 -74.96734 36012 ft 417 kts 316°
2026-05-08 23:42 29.22882 -75.00861 36010 ft 416 kts 316°
2026-05-08 23:42 29.27415 -75.04989 36007 ft 416 kts 315°
2026-05-08 23:43 29.31919 -75.09095 36015 ft 416 kts 315°
2026-05-08 23:43 29.36443 -75.13225 36017 ft 416 kts 315°
2026-05-08 23:44 29.40972 -75.17363 36017 ft 415 kts 315°
2026-05-08 23:44 29.45484 -75.21491 36016 ft 415 kts 315°
2026-05-08 23:45 29.49998 -75.25626 36017 ft 415 kts 315°
2026-05-08 23:45 29.54506 -75.29760 36018 ft 415 kts 315°
2026-05-08 23:46 29.59018 -75.33903 36018 ft 414 kts 315°
2026-05-08 23:46 29.63487 -75.38012 36019 ft 414 kts 315°
2026-05-08 23:47 29.67976 -75.42143 36022 ft 413 kts 315°
2026-05-08 23:47 29.72463 -75.46277 36027 ft 413 kts 315°
2026-05-08 23:48 29.76942 -75.50409 36027 ft 413 kts 315°
2026-05-08 23:48 29.81424 -75.54548 36028 ft 412 kts 315°
2026-05-08 23:49 29.85890 -75.58679 36026 ft 412 kts 314°
2026-05-08 23:49 29.90360 -75.62817 36028 ft 412 kts 314°
2026-05-08 23:50 29.94827 -75.66956 36035 ft 411 kts 314°
2026-05-08 23:50 29.99284 -75.71093 36035 ft 411 kts 314°
2026-05-08 23:51 30.03744 -75.75236 36036 ft 410 kts 314°
2026-05-08 23:51 30.08181 -75.79363 36034 ft 410 kts 314°
2026-05-08 23:52 30.12624 -75.83501 36035 ft 410 kts 314°
2026-05-08 23:52 30.17066 -75.87643 36037 ft 411 kts 314°
2026-05-08 23:53 30.21479 -75.91762 36034 ft 410 kts 314°
2026-05-08 23:53 30.25915 -75.95908 36035 ft 410 kts 314°
2026-05-08 23:54 30.29607 -75.99362 36035 ft 410 kts 314°
2026-05-08 23:55 30.36261 -76.05598 36035 ft 410 kts 314°
2026-05-08 23:55 30.40695 -76.09758 36052 ft 410 kts 314°
2026-05-08 23:56 30.45123 -76.13918 36036 ft 409 kts 314°
2026-05-08 23:56 30.49543 -76.18075 36035 ft 409 kts 314°
2026-05-08 23:57 30.53954 -76.22230 36035 ft 408 kts 313°
2026-05-08 23:57 30.58367 -76.26390 36051 ft 408 kts 313°
2026-05-08 23:58 30.62742 -76.30521 36052 ft 408 kts 313°
2026-05-08 23:58 30.67159 -76.34695 36043 ft 406 kts 313°
2026-05-08 23:59 30.71516 -76.38818 36019 ft 407 kts 313°
2026-05-08 23:59 30.75909 -76.42981 36017 ft 406 kts 313°
2026-05-09 00:00 30.80288 -76.47135 36028 ft 406 kts 313°
2026-05-09 00:00 30.84670 -76.51296 36021 ft 406 kts 313°
2026-05-09 00:01 30.89042 -76.55454 36026 ft 406 kts 312°
2026-05-09 00:01 30.93409 -76.59612 36028 ft 405 kts 312°
2026-05-09 00:02 30.97765 -76.63764 36027 ft 404 kts 312°
2026-05-09 00:02 31.02116 -76.67917 36026 ft 404 kts 312°
2026-05-09 00:03 31.06464 -76.72071 36027 ft 404 kts 312°
2026-05-09 00:03 31.10806 -76.76225 36026 ft 404 kts 312°
2026-05-09 00:04 31.15153 -76.80387 36028 ft 404 kts 312°
2026-05-09 00:04 31.19493 -76.84548 36026 ft 403 kts 312°
2026-05-09 00:05 31.23799 -76.88682 36027 ft 403 kts 312°
2026-05-09 00:05 31.28125 -76.92839 36041 ft 402 kts 311°
2026-05-09 00:06 31.32449 -76.97000 36043 ft 402 kts 311°
2026-05-09 00:06 31.36896 -77.01024 36048 ft 407 kts 315°
2026-05-09 00:07 31.41513 -77.04832 36052 ft 406 kts 315°
2026-05-09 00:07 31.46463 -77.08155 36054 ft 428 kts 332°
2026-05-09 00:08 31.52192 -77.10175 36052 ft 429 kts 331°
2026-05-09 00:08 31.57900 -77.12250 36051 ft 430 kts 331°
2026-05-09 00:09 31.63627 -77.14337 36056 ft 431 kts 331°
2026-05-09 00:09 31.69344 -77.16422 36058 ft 430 kts 331°
2026-05-09 00:10 31.75060 -77.18509 36060 ft 430 kts 331°
2026-05-09 00:10 31.80772 -77.20598 36055 ft 430 kts 331°
2026-05-09 00:11 31.86443 -77.22675 36048 ft 430 kts 331°
2026-05-09 00:11 31.92156 -77.24770 36059 ft 430 kts 331°
2026-05-09 00:12 31.97864 -77.26866 36057 ft 429 kts 331°
2026-05-09 00:12 32.03572 -77.28964 36059 ft 428 kts 330°
2026-05-09 00:13 32.09248 -77.31053 36052 ft 427 kts 330°
2026-05-09 00:13 32.14929 -77.33147 36059 ft 427 kts 330°
2026-05-09 00:14 32.20598 -77.35238 36049 ft 427 kts 331°
2026-05-09 00:14 32.26274 -77.37337 36051 ft 428 kts 331°
2026-05-09 00:15 32.31959 -77.39440 36061 ft 427 kts 331°
2026-05-09 00:15 32.37638 -77.41544 36067 ft 427 kts 331°
2026-05-09 00:16 32.43304 -77.43646 36064 ft 427 kts 331°
2026-05-09 00:16 32.48939 -77.45740 36061 ft 427 kts 331°
2026-05-09 00:17 32.54615 -77.47852 36062 ft 427 kts 331°
2026-05-09 00:17 32.60285 -77.49963 36065 ft 426 kts 330°
2026-05-09 00:18 32.65948 -77.52075 36065 ft 426 kts 330°
2026-05-09 00:18 32.71614 -77.54192 36064 ft 426 kts 330°
2026-05-09 00:19 32.77278 -77.56310 36069 ft 427 kts 330°
2026-05-09 00:19 32.82906 -77.58417 36065 ft 427 kts 330°
2026-05-09 00:20 32.88573 -77.60542 36064 ft 426 kts 330°
2026-05-09 00:20 32.94220 -77.62662 36062 ft 424 kts 330°
2026-05-09 00:21 32.99829 -77.64770 35875 ft 418 kts 330°
2026-05-09 00:21 33.02577 -77.65803 35646 ft 411 kts 330°
2026-05-09 00:21 33.05297 -77.66828 35413 ft 408 kts 329°
2026-05-09 00:21 33.08009 -77.67850 35180 ft 409 kts 330°
2026-05-09 00:22 33.10746 -77.68884 35044 ft 416 kts 330°
2026-05-09 00:22 33.16333 -77.70993 35057 ft 425 kts 330°
2026-05-09 00:23 33.22018 -77.73142 35061 ft 431 kts 330°
2026-05-09 00:23 33.27748 -77.75310 35065 ft 431 kts 330°
2026-05-09 00:24 33.33461 -77.77476 35058 ft 430 kts 330°
2026-05-09 00:24 33.39126 -77.79626 35060 ft 430 kts 330°
2026-05-09 00:25 33.44842 -77.81798 35067 ft 431 kts 330°
2026-05-09 00:25 33.50567 -77.83977 35065 ft 431 kts 330°
2026-05-09 00:26 33.56281 -77.86154 35064 ft 431 kts 330°
2026-05-09 00:26 33.61995 -77.88335 35066 ft 431 kts 330°
2026-05-09 00:27 33.67677 -77.90507 35065 ft 431 kts 329°
2026-05-09 00:27 33.73402 -77.92697 35064 ft 432 kts 329°
2026-05-09 00:28 33.79129 -77.94892 35061 ft 432 kts 329°
2026-05-09 00:28 33.84843 -77.97085 35066 ft 431 kts 329°
2026-05-09 00:28 33.87810 -77.97906 35053 ft 451 kts 342°
2026-05-09 00:29 33.91010 -77.97941 35070 ft 464 kts 347°
2026-05-09 00:29 33.97446 -77.97792 35064 ft 466 kts 348°
2026-05-09 00:30 34.03927 -77.97571 35063 ft 466 kts 348°
2026-05-09 00:30 34.10430 -77.97338 35062 ft 467 kts 348°
2026-05-09 00:31 34.16920 -77.97104 35065 ft 467 kts 348°
2026-05-09 00:31 34.23419 -77.96870 35066 ft 467 kts 348°
2026-05-09 00:32 34.29908 -77.96635 35066 ft 467 kts 348°
2026-05-09 00:32 34.36406 -77.96400 35064 ft 466 kts 348°
2026-05-09 00:33 34.42889 -77.96165 35065 ft 467 kts 348°
2026-05-09 00:33 34.49383 -77.95929 35065 ft 466 kts 348°
2026-05-09 00:34 34.55824 -77.95694 35062 ft 466 kts 348°
2026-05-09 00:34 34.62310 -77.95458 35063 ft 466 kts 348°
2026-05-09 00:35 34.68797 -77.95221 35063 ft 466 kts 347°
2026-05-09 00:35 34.75288 -77.94984 35071 ft 466 kts 347°
2026-05-09 00:36 34.81772 -77.94747 35060 ft 466 kts 347°
2026-05-09 00:36 34.88247 -77.94510 35057 ft 466 kts 347°
2026-05-09 00:37 34.94720 -77.94271 35061 ft 465 kts 347°
2026-05-09 00:37 35.01210 -77.94033 35064 ft 467 kts 347°
2026-05-09 00:38 35.07708 -77.93793 35063 ft 467 kts 347°
2026-05-09 00:38 35.14208 -77.93554 35067 ft 467 kts 346°
2026-05-09 00:39 35.20660 -77.93315 35067 ft 467 kts 346°
2026-05-09 00:39 35.27149 -77.93075 35062 ft 467 kts 346°
2026-05-09 00:40 35.33582 -77.93089 35075 ft 456 kts 340°
2026-05-09 00:40 35.39919 -77.93592 35061 ft 456 kts 340°
2026-05-09 00:41 35.49408 -77.94371 35051 ft 455 kts 340°
2026-05-09 00:41 35.54711 -77.94810 35052 ft 456 kts 340°
2026-05-09 00:42 35.60986 -77.95331 35055 ft 455 kts 340°
2026-05-09 00:42 35.67311 -77.95856 35057 ft 457 kts 340°
2026-05-09 00:43 35.73662 -77.96385 35051 ft 457 kts 340°
2026-05-09 00:43 35.80004 -77.96914 35046 ft 456 kts 340°
2026-05-09 00:44 35.86344 -77.97443 35045 ft 456 kts 339°
2026-05-09 00:44 35.92676 -77.97973 35044 ft 456 kts 339°
2026-05-09 00:45 35.99020 -77.98505 35044 ft 457 kts 339°
2026-05-09 00:45 36.05322 -77.99034 35049 ft 457 kts 340°
2026-05-09 00:46 36.11664 -77.99566 35054 ft 457 kts 339°
2026-05-09 00:46 36.18007 -78.00100 35058 ft 457 kts 339°
2026-05-09 00:47 36.24346 -78.00635 35055 ft 457 kts 339°
2026-05-09 00:47 36.30695 -78.01171 35056 ft 456 kts 339°
2026-05-09 00:48 36.37033 -78.01707 35064 ft 457 kts 339°
2026-05-09 00:48 36.43371 -78.02245 35064 ft 457 kts 339°
2026-05-09 00:49 36.49710 -78.02783 35061 ft 456 kts 339°
2026-05-09 00:49 36.56045 -78.03322 35077 ft 457 kts 339°
2026-05-09 00:50 36.62342 -78.03858 35078 ft 456 kts 339°
2026-05-09 00:50 36.68647 -78.04396 35095 ft 454 kts 339°
2026-05-09 00:51 36.74930 -78.04932 35084 ft 451 kts 339°
2026-05-09 00:51 36.81134 -78.05463 35070 ft 444 kts 339°
2026-05-09 00:52 36.87309 -78.05993 35052 ft 445 kts 339°
2026-05-09 00:52 36.93493 -78.06524 35044 ft 445 kts 339°
2026-05-09 00:53 36.99668 -78.07055 35036 ft 445 kts 339°
2026-05-09 00:53 37.05848 -78.07588 35029 ft 445 kts 339°
2026-05-09 00:54 37.12024 -78.08120 35027 ft 445 kts 339°
2026-05-09 00:54 37.18151 -78.08648 35021 ft 434 kts 339°
2026-05-09 00:55 37.24123 -78.09166 35024 ft 428 kts 339°
2026-05-09 00:55 37.30076 -78.09683 35033 ft 428 kts 339°
2026-05-09 00:56 37.35997 -78.10197 35021 ft 426 kts 339°
2026-05-09 00:56 37.41874 -78.10708 35021 ft 426 kts 339°
2026-05-09 00:57 37.47826 -78.11227 35021 ft 426 kts 339°
2026-05-09 00:57 37.53688 -78.11738 35007 ft 424 kts 339°
2026-05-09 00:58 37.59575 -78.12246 35008 ft 425 kts 339°
2026-05-09 00:58 37.65463 -78.12732 35001 ft 424 kts 339°
2026-05-09 00:59 37.71362 -78.13221 34999 ft 424 kts 339°
2026-05-09 00:59 37.77225 -78.13708 35002 ft 421 kts 339°
2026-05-09 01:00 37.83079 -78.14197 34993 ft 421 kts 339°
2026-05-09 01:00 37.88918 -78.14687 35001 ft 420 kts 339°
2026-05-09 01:01 37.94760 -78.15170 35009 ft 421 kts 339°
2026-05-09 01:01 38.00578 -78.15658 34985 ft 420 kts 339°
2026-05-09 01:02 38.06429 -78.16149 35002 ft 421 kts 339°
2026-05-09 01:02 38.12286 -78.16642 34977 ft 421 kts 339°
2026-05-09 01:03 38.18125 -78.17133 34980 ft 421 kts 339°
2026-05-09 01:03 38.23972 -78.17625 34965 ft 421 kts 339°
2026-05-09 01:04 38.29801 -78.18117 34965 ft 421 kts 339°
2026-05-09 01:04 38.35638 -78.18612 34950 ft 421 kts 339°
2026-05-09 01:05 38.41498 -78.19106 34960 ft 422 kts 339°
2026-05-09 01:06 38.50297 -78.19851 34996 ft 421 kts 339°
2026-05-09 01:06 38.56155 -78.20350 34963 ft 423 kts 339°
2026-05-09 01:07 38.62025 -78.20849 34955 ft 424 kts 339°
2026-05-09 01:07 38.67923 -78.21352 34981 ft 425 kts 339°
2026-05-09 01:08 38.73821 -78.21855 34959 ft 424 kts 340°
2026-05-09 01:08 38.79715 -78.22360 34938 ft 424 kts 339°
2026-05-09 01:09 38.85613 -78.22866 34950 ft 425 kts 340°
2026-05-09 01:09 38.91489 -78.23370 34945 ft 422 kts 340°
2026-05-09 01:10 38.97363 -78.23875 34946 ft 423 kts 340°
2026-05-09 01:10 39.03195 -78.24377 34939 ft 422 kts 340°
2026-05-09 01:11 39.09073 -78.24884 34945 ft 423 kts 340°
2026-05-09 01:11 39.14945 -78.25391 34947 ft 423 kts 340°
2026-05-09 01:12 39.20809 -78.25899 34949 ft 421 kts 340°
2026-05-09 01:12 39.26666 -78.26406 34941 ft 421 kts 340°
2026-05-09 01:13 39.32518 -78.26915 34948 ft 422 kts 340°
2026-05-09 01:13 39.38342 -78.27422 34942 ft 421 kts 340°
2026-05-09 01:14 39.44208 -78.27932 34944 ft 420 kts 340°
2026-05-09 01:14 39.50023 -78.28440 34952 ft 418 kts 340°
2026-05-09 01:15 39.55805 -78.28945 34954 ft 419 kts 340°
2026-05-09 01:15 39.61638 -78.29456 34923 ft 418 kts 340°
2026-05-09 01:16 39.67440 -78.29965 34954 ft 419 kts 340°
2026-05-09 01:16 39.73219 -78.30608 34942 ft 414 kts 338°
2026-05-09 01:17 39.81847 -78.31735 34966 ft 415 kts 339°
2026-05-09 01:17 39.87567 -78.32475 34962 ft 412 kts 339°
2026-05-09 01:18 39.93290 -78.33216 34950 ft 413 kts 339°
2026-05-09 01:18 39.99015 -78.33958 34956 ft 414 kts 339°
2026-05-09 01:19 40.04746 -78.34700 34955 ft 415 kts 339°
2026-05-09 01:19 40.10491 -78.35447 34950 ft 415 kts 339°
2026-05-09 01:20 40.16181 -78.36187 34935 ft 413 kts 339°
2026-05-09 01:20 40.21919 -78.36917 34940 ft 414 kts 339°
2026-05-09 01:21 40.27649 -78.37682 34936 ft 415 kts 339°
2026-05-09 01:21 40.33390 -78.38435 34954 ft 415 kts 339°
2026-05-09 01:22 40.39128 -78.39187 34953 ft 415 kts 339°
2026-05-09 01:22 40.44884 -78.39943 34949 ft 415 kts 339°
2026-05-09 01:23 40.50628 -78.40699 34958 ft 416 kts 339°
2026-05-09 01:23 40.56389 -78.41458 34956 ft 416 kts 340°
2026-05-09 01:24 40.62147 -78.42217 34958 ft 416 kts 340°
2026-05-09 01:24 40.67907 -78.42979 34955 ft 417 kts 340°
2026-05-09 01:25 40.73679 -78.43743 34950 ft 417 kts 340°
2026-05-09 01:25 40.78486 -78.44381 34956 ft 418 kts 340°
2026-05-09 01:26 40.84270 -78.45149 34944 ft 418 kts 340°
2026-05-09 01:26 40.90071 -78.45921 34954 ft 419 kts 340°
2026-05-09 01:27 40.95869 -78.46694 34957 ft 419 kts 340°
2026-05-09 01:27 41.01679 -78.47470 34949 ft 419 kts 341°
2026-05-09 01:28 41.07495 -78.48248 34952 ft 420 kts 341°
2026-05-09 01:28 41.13321 -78.49029 34952 ft 420 kts 341°
2026-05-09 01:29 41.19108 -78.49806 34954 ft 421 kts 341°
2026-05-09 01:29 41.24943 -78.50591 34956 ft 421 kts 341°
2026-05-09 01:30 41.30770 -78.51376 34948 ft 421 kts 341°
2026-05-09 01:30 41.36609 -78.52164 34949 ft 422 kts 342°
2026-05-09 01:31 41.42457 -78.52955 34943 ft 422 kts 342°
2026-05-09 01:31 41.48303 -78.53747 34938 ft 423 kts 342°
2026-05-09 01:32 41.54163 -78.54543 34930 ft 423 kts 342°
2026-05-09 01:32 41.60024 -78.55340 34938 ft 423 kts 342°
2026-05-09 01:33 41.65885 -78.56138 34928 ft 423 kts 342°
2026-05-09 01:33 41.71743 -78.56937 34930 ft 424 kts 342°
2026-05-09 01:34 41.77600 -78.57738 34925 ft 422 kts 342°
2026-05-09 01:34 41.83439 -78.58538 34930 ft 422 kts 342°
2026-05-09 01:35 41.89287 -78.59341 34931 ft 423 kts 342°
2026-05-09 01:35 41.95131 -78.60144 34922 ft 422 kts 342°
2026-05-09 01:36 42.01002 -78.60953 34920 ft 426 kts 342°
2026-05-09 01:36 42.06833 -78.61745 34922 ft 423 kts 343°
2026-05-09 01:37 42.12704 -78.62566 34927 ft 424 kts 343°
2026-05-09 01:37 42.18575 -78.63382 34926 ft 424 kts 343°
2026-05-09 01:38 42.21478 -78.63784 34762 ft 416 kts 343°
2026-05-09 01:38 42.24378 -78.64188 34242 ft 421 kts 343°
2026-05-09 01:38 42.27290 -78.64592 33698 ft 421 kts 343°
2026-05-09 01:38 42.30203 -78.64997 33181 ft 422 kts 343°
2026-05-09 01:39 42.33117 -78.65403 32665 ft 421 kts 343°
2026-05-09 01:39 42.36038 -78.65810 32147 ft 422 kts 343°
2026-05-09 01:39 42.38949 -78.66216 31907 ft 421 kts 343°
2026-05-09 01:39 42.41879 -78.66625 31921 ft 423 kts 343°
2026-05-09 01:40 42.47707 -78.67439 31392 ft 419 kts 343°
2026-05-09 01:40 42.50618 -78.67847 30587 ft 422 kts 343°
2026-05-09 01:40 42.53541 -78.68257 29829 ft 422 kts 343°
2026-05-09 01:41 42.56461 -78.68667 29087 ft 422 kts 343°
2026-05-09 01:41 42.59388 -78.69077 28279 ft 424 kts 344°
2026-05-09 01:41 42.62328 -78.69490 27536 ft 423 kts 344°
2026-05-09 01:41 42.65251 -78.69901 27028 ft 424 kts 344°
2026-05-09 01:42 42.68212 -78.70318 26536 ft 430 kts 345°
2026-05-09 01:42 42.71196 -78.70738 26046 ft 432 kts 345°
2026-05-09 01:42 42.74182 -78.71159 25568 ft 433 kts 345°
2026-05-09 01:42 42.77180 -78.71582 25086 ft 433 kts 345°
2026-05-09 01:43 42.80176 -78.72004 24611 ft 431 kts 345°
2026-05-09 01:43 42.83148 -78.72425 24138 ft 428 kts 346°
2026-05-09 01:43 42.86103 -78.72843 23669 ft 425 kts 346°
2026-05-09 01:43 42.89004 -78.73254 23212 ft 423 kts 346°
2026-05-09 01:44 42.91859 -78.73947 22656 ft 406 kts 333°
2026-05-09 01:44 42.94238 -78.75790 22212 ft 387 kts 314°
2026-05-09 01:44 42.96040 -78.78452 21862 ft 381 kts 306°
2026-05-09 01:44 42.97758 -78.81212 21458 ft 380 kts 306°
2026-05-09 01:45 42.99453 -78.83971 21053 ft 378 kts 306°
2026-05-09 01:45 43.01125 -78.86723 20651 ft 376 kts 306°
2026-05-09 01:45 43.02788 -78.89475 20253 ft 374 kts 306°
2026-05-09 01:45 43.04440 -78.92220 19848 ft 372 kts 306°
2026-05-09 01:46 43.06083 -78.94951 19449 ft 371 kts 306°
2026-05-09 01:46 43.07715 -78.97671 19048 ft 369 kts 306°
2026-05-09 01:46 43.09340 -79.00380 18664 ft 368 kts 306°
2026-05-09 01:46 43.10952 -79.03069 18275 ft 366 kts 306°
2026-05-09 01:47 43.12568 -79.05767 17885 ft 364 kts 306°
2026-05-09 01:47 43.14168 -79.08440 17454 ft 362 kts 306°
2026-05-09 01:47 43.15764 -79.11108 17086 ft 361 kts 306°
2026-05-09 01:47 43.17332 -79.13732 16747 ft 360 kts 306°
2026-05-09 01:48 43.18933 -79.16414 16396 ft 359 kts 306°
2026-05-09 01:48 43.20507 -79.19052 16030 ft 357 kts 306°
2026-05-09 01:48 43.22079 -79.21690 15654 ft 356 kts 306°
2026-05-09 01:48 43.23639 -79.24310 15281 ft 355 kts 306°
2026-05-09 01:49 43.25197 -79.26929 14902 ft 353 kts 306°
2026-05-09 01:49 43.26728 -79.29504 14533 ft 352 kts 306°
2026-05-09 01:49 43.28275 -79.32109 14159 ft 351 kts 306°
2026-05-09 01:49 43.29838 -79.34680 13769 ft 352 kts 311°
2026-05-09 01:50 43.31830 -79.36569 13347 ft 346 kts 331°
2026-05-09 01:50 43.33957 -79.37852 13214 ft 321 kts 330°
2026-05-09 01:50 43.35845 -79.39051 13051 ft 300 kts 329°
2026-05-09 01:50 43.37704 -79.40243 12557 ft 292 kts 329°
2026-05-09 01:51 43.39529 -79.41415 12030 ft 286 kts 329°
2026-05-09 01:51 43.41313 -79.42561 11547 ft 280 kts 329°
2026-05-09 01:51 43.43054 -79.43681 11071 ft 274 kts 330°
2026-05-09 01:51 43.44756 -79.44777 10596 ft 269 kts 330°
2026-05-09 01:52 43.46377 -79.45821 10147 ft 265 kts 330°
2026-05-09 01:52 43.48062 -79.46906 9692 ft 270 kts 330°
2026-05-09 01:52 43.49780 -79.48015 9203 ft 276 kts 331°
2026-05-09 01:52 43.51535 -79.49148 8710 ft 282 kts 331°
2026-05-09 01:53 43.53319 -79.50299 8192 ft 281 kts 332°
2026-05-09 01:53 43.55061 -79.51420 7934 ft 268 kts 332°
2026-05-09 01:53 43.56677 -79.52456 8007 ft 243 kts 331°
2026-05-09 01:53 43.58195 -79.53333 8008 ft 237 kts 343°
2026-05-09 01:54 43.59768 -79.53279 8015 ft 240 kts 14°
2026-05-09 01:54 43.61213 -79.52128 7670 ft 247 kts 42°
2026-05-09 01:54 43.62375 -79.50436 7353 ft 248 kts 45°
2026-05-09 01:54 43.63564 -79.48701 7062 ft 247 kts 45°
2026-05-09 01:55 43.64739 -79.46986 6792 ft 245 kts 45°
2026-05-09 01:55 43.65908 -79.45281 6506 ft 244 kts 45°
2026-05-09 01:55 43.67059 -79.43600 6226 ft 243 kts 45°
2026-05-09 01:55 43.68173 -79.41973 5973 ft 241 kts 45°
2026-05-09 01:56 43.69325 -79.40291 5679 ft 240 kts 45°
2026-05-09 01:56 43.70466 -79.38623 5413 ft 239 kts 45°
2026-05-09 01:56 43.71548 -79.37039 5152 ft 238 kts 46°
2026-05-09 01:56 43.72693 -79.35427 4872 ft 236 kts 38°
2026-05-09 01:57 43.74187 -79.34657 4601 ft 227 kts 356°
2026-05-09 01:57 43.75647 -79.35309 4227 ft 222 kts 323°
2026-05-09 01:57 43.76893 -79.36570 3984 ft 217 kts 320°
2026-05-09 01:57 43.78055 -79.37799 3824 ft 206 kts 320°
2026-05-09 01:58 43.78937 -79.39229 3609 ft 189 kts 283°
2026-05-09 01:58 43.78983 -79.40928 3498 ft 172 kts 261°
2026-05-09 01:58 43.78844 -79.42574 3195 ft 172 kts 258°
2026-05-09 01:58 43.78464 -79.44122 3034 ft 170 kts 237°
2026-05-09 01:59 43.77758 -79.45419 3002 ft 168 kts 223°
2026-05-09 01:59 43.76934 -79.46576 3015 ft 169 kts 222°
2026-05-09 01:59 43.76124 -79.47735 2847 ft 163 kts 223°
2026-05-09 01:59 43.75358 -79.48853 2645 ft 159 kts 223°
2026-05-09 02:00 43.74605 -79.49951 2468 ft 159 kts 223°
2026-05-09 02:00 43.73847 -79.51058 2274 ft 156 kts 224°
2026-05-09 02:00 43.73112 -79.52133 2059 ft 155 kts 224°
2026-05-09 02:00 43.72360 -79.53230 1850 ft 155 kts 224°
2026-05-09 02:01 43.71627 -79.54303 1645 ft 156 kts 225°
2026-05-09 02:01 43.70898 -79.55402 1444 ft 157 kts 225°
2026-05-09 02:01 43.70144 -79.56508 1249 ft 157 kts 224°
2026-05-09 02:01 43.69392 -79.57595 1026 ft 156 kts 224°
2026-05-09 02:02 43.68643 -79.58670 825 ft 154 kts 225°
2026-05-09 02:02 43.67903 -79.59734 627 ft 153 kts 224°
2026-05-09 02:02 43.67216 -79.60726 568 ft 123 kts 225°
2026-05-09 02:02 43.66797 -79.61330 567 ft 58 kts 226°
2026-05-09 02:03 43.66602 -79.61629 565 ft 28 kts 232°
2026-05-09 02:03 43.66546 -79.61825 566 ft 8 kts 256°
2026-05-09 02:03 43.66539 -79.61867 569 ft 2 kts 262°
2026-05-09 02:03 43.66542 -79.61897 561 ft 2 kts 285°
2026-05-09 02:04 43.66556 -79.61926 561 ft 5 kts 315°
2026-05-09 02:04 43.66583 -79.61962 570 ft 5 kts 316°
2026-05-09 02:04 43.66605 -79.61992 564 ft 3 kts 317°
2026-05-09 02:04 43.66609 -79.61997 564 ft 1 kts 319°
2026-05-09 02:05 43.66644 -79.62017 570 ft 11 kts 360°
2026-05-09 02:05 43.66727 -79.61934 574 ft 18 kts 42°
2026-05-09 02:05 43.66825 -79.61809 574 ft 20 kts 40°
2026-05-09 02:05 43.66930 -79.61678 570 ft 19 kts 42°
2026-05-09 02:06 43.67022 -79.61561 573 ft 15 kts 43°
2026-05-09 02:06 43.67099 -79.61466 574 ft 16 kts 42°
2026-05-09 02:06 43.67151 -79.61399 569 ft 5 kts 44°
2026-05-09 02:07 43.67160 -79.61387 568 ft 3 kts 43°
2026-05-09 02:07 43.67206 -79.61309 572 ft 17 kts 53°
2026-05-09 02:07 43.67298 -79.61288 566 ft 17 kts 317°
2026-05-09 02:07 43.67385 -79.61402 564 ft 18 kts 317°
2026-05-09 02:08 43.67477 -79.61521 568 ft 18 kts 316°
2026-05-09 02:08 43.67544 -79.61608 565 ft 10 kts 317°
2026-05-09 02:08 43.67571 -79.61644 572 ft 8 kts 316°
2026-05-09 02:08 43.67626 -79.61716 568 ft 10 kts 316°
2026-05-09 02:09 43.67684 -79.61793 568 ft 13 kts 318°
2026-05-09 02:09 43.67755 -79.61884 567 ft 16 kts 317°
2026-05-09 02:09 43.67856 -79.62015 565 ft 17 kts 316°
2026-05-09 02:09 43.67963 -79.62095 564 ft 17 kts 333°
2026-05-09 02:10 43.68054 -79.62209 564 ft 19 kts 315°
2026-05-09 02:10 43.68155 -79.62341 568 ft 18 kts 317°
2026-05-09 02:10 43.68249 -79.62424 571 ft 16 kts 11°
2026-05-09 02:10 43.68305 -79.62302 571 ft 16 kts 57°
2026-05-09 02:11 43.68338 -79.62242 567 ft 3 kts 44°
2026-05-09 02:11 43.68345 -79.62232 564 ft 0 kts 44°
2026-05-09 02:11 43.68364 -79.62210 567 ft 9 kts 41°
2026-05-09 02:11 43.68408 -79.62154 567 ft 14 kts 47°
2026-05-09 02:12 43.68405 -79.62089 564 ft 3 kts 108°
2026-05-09 02:12 43.68402 -79.62077 564 ft 0 kts 107°